CYVP

Kuujjuaq Airport

Airport
ICAO code
CYVP
Summary
ICAO Region
NAM
ICAO Territory
Location

Kuujjuaq, Quebec,

Coordinates
58° 6' 11" N , 68° 25' 8" W
KCC
Airport BS
Non Avian Wildlife Hazards to Aircraft
Airport CFIT
Altimeter Temperature Error Correction
Airport GND
Aircraft Ground De/Anti Icing
Airport RE
Crosswind Landings
Metar
CYVP 161200Z 36013G20KT 4SM -SN DRSN BKN014 OVC030 M05/M07 A2996 RMK ST7SC1 VIS N 10 /S01/ SLP150

Description

Airport serving Kuujjuaq, Quebec.

Climatology

Tundra climate (Köppen climate classification ET) - warmest month has an average temperature of 0 - 10 degrees C.

Runways

Designator Length Width Surface Rops
13/31 1524 46 GVL Yes/Yes
7/25 1829 46 ASP Yes/Yes

Airport map

Aerial View

SKYbrary Partners:

Safety knowledge contributed by: